MICROSAT-TD (43128 NORAD) Tracking and Keplerian Element Data

This shows tracking and keplerian element data for the satellite.

Feedback or suggestion? Click here.




ElementValue
Catalog43128
NameMICROSAT-TD
Epoch Orbit4879
Epoch Day323.11526486
Epoch Year2018
RAAN19.4331
Inclination96.8395
Eccentricity0.0008976
Argument of Perigee226.134
Mean Anonmoly133.9183
Mean Motion15.70972844
Decay Rate0.00018282
L11 43128U 18004T 18323.11526486 .00018282 00000-0 14686-3 0 9990
L22 43128 96.8395 19.4331 0008976 226.1340 133.9183 15.70972844 48792

Live tracking and technical data element details for MICROSAT-TD (NORAD 43128). MICROSAT-TD can be tracked NOW for your location showing map with azimuth and elevation plus other details from your city location.

Track the satellite on the map from your city or location and see movement details for azimuth, elevation, latitude, longitude, range, height, and movement on the map or in text.







IsCatalogInMostPopularTable: catalog: 43128, numindb: 111
Update: records affected: 1



GetName: 43128 MICROSAT-TD

Hit Count: updated at: Mon, 19 Nov 2018 11:59:05 GMT